This demonstration page uses our WeatherBlox Daily Observations layout. Learn more.

39.29038, -76.61219

Hourly Observations for June 11, 2019

Temp ( °F °C ) Dew Point ( °F °C ) Humidity (%) Winds ( mph kmh ) Pressure ( in mb ) Visibility ( mi km ) Precip ( " mm )
12:54 am 00:54 undefined 72 22.2 66 18.9 82 82 undefined N/A 29.85 1011 N/A 0 0
1:54 am 01:54 undefined 70 21.1 67 19.4 90 90 undefined N/A 29.83 1010 N/A 0.12 3.048
2:54 am 02:54 undefined 70 21.1 66 18.9 87 87 undefined N/A 29.85 1011 N/A 0 0
3:54 am 03:54 undefined 70 21.1 63 17.2 79 79 undefined N/A 29.85 1011 N/A 0 0
4:54 am 04:54 undefined 69 20.6 59 15 70 70 undefined N/A 29.88 1012 N/A 0 0
5:54 am 05:54 undefined 67 19.4 54 12.2 63 63 undefined N/A 29.91 1013 N/A 0 0
6:54 am 06:54 undefined 66 18.9 53 11.7 63 63 undefined N/A 29.97 1015 N/A 0 0
7:54 am 07:54 undefined 65 18.3 50 10 59 59 undefined N/A 29.97 1015 N/A 0 0
8:54 am 08:54 undefined 67 19.4 49 9.4 53 53 undefined N/A 30.03 1017 N/A 0 0
9:54 am 09:54 undefined 68 20 47 8.3 47 47 undefined N/A 30.03 1017 N/A 0 0
10:54 am 10:54 undefined 71 21.7 48 8.9 44 44 undefined N/A 30.03 1017 N/A 0 0
11:54 am 11:54 undefined 73 22.8 47 8.3 40 40 undefined N/A 30.03 1017 N/A 0 0
12:54 pm 12:54 undefined 75 23.9 47 8.3 37 37 undefined N/A 30.03 1017 N/A 0 0
1:54 pm 13:54 undefined 76 24.4 46 7.8 35 35 undefined N/A 30.03 1017 N/A 0 0
2:54 pm 14:54 undefined 78 25.6 45 7.2 31 31 undefined N/A 30.03 1017 N/A 0 0
3:54 pm 15:54 undefined 79 26.1 45 7.2 30 30 undefined N/A 30.03 1017 N/A 0 0
4:54 pm 16:54 undefined 80 26.7 47 8.3 31 31 undefined N/A 30.03 1017 N/A 0 0
5:54 pm 17:54 undefined 78 25.6 44 6.7 30 30 undefined N/A 30 1016 N/A 0 0
6:54 pm 18:54 undefined 77 25 45 7.2 32 32 undefined N/A 30 1016 N/A 0 0
7:54 pm 19:54 undefined 77 25 45 7.2 32 32 undefined N/A 30.03 1017 N/A 0 0
8:54 pm 20:54 undefined 76 24.4 46 7.8 35 35 undefined N/A 30.03 1017 N/A 0 0
9:54 pm 21:54 undefined 74 23.3 47 8.3 38 38 undefined N/A 30.06 1018 N/A 0 0
10:54 pm 22:54 undefined 72 22.2 49 9.4 44 44 undefined N/A 30.06 1018 N/A 0 0
11:54 pm 23:54 undefined 72 22.2 51 10.6 48 48 undefined N/A 30.09 1019 N/A 0 0

Powered by AerisWeather